Campo, CA

11:43 PM PDT on September 21, 2019 (GMT -0700)
Campo

Weather History for KCZZ - August, 2019

Change the Weather History Date:

Saturday, August 24, 2019

  Actual Average Record
Temperature  
Mean Temperature 77 °F 73 °F  
Max Temperature 98 °F 94 °F 106 °F (1985)
Min Temperature 55 °F 53 °F 37 °F (1978)
Degree Days  
Heating Degree Days 0 0  
Month to date heating degree days 0 0  
Since 1 June heating degree days 42 63  
Since 1 July heating degree days 6 7  
Cooling Degree Days 12 9  
Month to date cooling degree days 228 216  
Year to date cooling degree days 556 588  
Since 1 June cooling degree days 554 558  
Growing Degree Days 26 (Base 50)    
Moisture  
Dew Point 48 °F    
Average Humidity 39    
Maximum Humidity 64    
Minimum Humidity 13    
Precipitation  
Precipitation 0.00 in 0.02 in 1.16 in (1988)
Month to date precipitation 0.00 0.55  
Year to date precipitation 12.82 11.02  
Sea Level Pressure  
Sea Level Pressure 29.88 in    
Wind  
Wind Speed 8 mph (ENE)    
Max Wind Speed 20 mph    
Max Gust Speed 24 mph    
T = Trace of Precipitation, MM = Missing Value Source: NWS Daily Summary

Daily Weather History Graph

Daily Weather History Graph

Search for Another Location

Airport or City:

Astronomy

Aug. 24, 2019 Rise Set
Actual Time 6:15 AM PDT 7:20 PM PDT
Civil Twilight 5:49 AM PDT 7:45 PM PDT
Nautical Twilight 5:19 AM PDT 8:16 PM PDT
Astronomical Twilight 4:48 AM PDT 8:47 PM PDT
Moon 12:18 AM PDT (8/24) 2:32 PM PDT (8/24)
Length of Visible Light 13h 56m
Length of Day
13h 05m
Last Quarter, 38% of the Moon is Illuminated
Aug 24
Last Quarter
Aug 30
New
Sep 5
First Quarter
Sep 13
Full
Sep 21
Last Quarter

Hourly Weather History & Observations

Time (PDT) Temp. Heat Index Dew Point Humidity Pressure Visibility Wind Dir Wind Speed Gust Speed Precip Events Conditions
12:52 AM 61.0 °F - 48.9 °F 64% 29.86 in - NE 5.8 mph - N/A   Unknown
1:52 AM 60.1 °F - 46.9 °F 62% 29.85 in - NE 5.8 mph - N/A   Unknown
2:52 AM 57.9 °F - 45.0 °F 62% 29.85 in - ENE 6.9 mph - N/A   Unknown
3:52 AM 57.9 °F - 45.0 °F 62% 29.85 in - ENE 6.9 mph - N/A   Unknown
4:52 AM 55.0 °F - 41.0 °F 59% 29.86 in - NNE 4.6 mph - N/A   Unknown
5:52 AM 57.0 °F - 41.0 °F 55% 29.87 in - NE 6.9 mph - N/A   Unknown
6:52 AM 57.9 °F - 43.0 °F 58% 29.89 in - ENE 8.1 mph - N/A   Unknown
7:52 AM 71.1 °F - 44.1 °F 38% 29.89 in - Calm Calm - N/A   Unknown
8:52 AM 82.0 °F - 46.0 °F 28% 29.88 in - Calm Calm - N/A   Unknown
9:52 AM 93.0 °F - 35.1 °F 13% 29.87 in - East 9.2 mph - N/A   Unknown
10:52 AM 90.0 °F 88.1 °F 55.9 °F 31% 29.88 in - ENE 12.7 mph - N/A   Unknown
11:52 AM 93.9 °F 91.4 °F 53.1 °F 25% 29.87 in - NE 9.2 mph 18.4 mph N/A   Unknown
12:52 PM 93.9 °F 92.6 °F 57.0 °F 29% 29.86 in - ENE 12.7 mph 18.4 mph N/A   Unknown
1:52 PM 97.0 °F 96.1 °F 57.9 °F 27% 29.85 in - ENE 11.5 mph 18.4 mph N/A   Unknown
3:05 PM 96.1 °F - 52.0 °F 22% 29.95 in - SSW 17.3 mph 21.9 mph N/A   Unknown
3:52 PM 91.9 °F - 51.1 °F 25% 29.85 in - SSW 18.4 mph - N/A   Unknown
4:52 PM 91.0 °F - 51.1 °F 25% 29.86 in - SW 15.0 mph 18.4 mph N/A   Unknown
5:52 PM 87.1 °F - 48.9 °F 27% 29.87 in - SW 10.4 mph - N/A   Unknown
6:52 PM 81.0 °F - 50.0 °F 34% 29.89 in - SSW 9.2 mph - N/A   Unknown
7:52 PM 75.9 °F - 50.0 °F 40% 29.90 in - SSW 10.4 mph - N/A   Unknown
8:52 PM 73.9 °F - 50.0 °F 43% 29.91 in - SSW 4.6 mph - N/A   Unknown
9:52 PM 73.0 °F - 48.9 °F 42% 29.91 in - North 5.8 mph - N/A   Unknown
10:52 PM 70.0 °F - 48.9 °F 47% 29.91 in - NE 4.6 mph - N/A   Unknown
11:52 PM 69.1 °F - 48.0 °F 47% 29.91 in - NE 3.5 mph - N/A   Unknown